Flag for U.S.A. Weather past 2 weeks in Grand Junction, Colorado, U.S.A.

Now
33 °F

Overcast.


Feels Like: 29 °F
Forecast: 31 / 46 °F
Wind: 5 mph from North

Location: Walker Field

Current Time: Mar 3, 2015 at 6:51:27 AM

Latest Report: Mar 3, 2015 at 5:53 AM


Visibility: 10 mi

Pressure: 29.82 "Hg

Humidity: 82%

Dew point: 28 °F

Location of Grand JunctionLocation

Historic Weather in Grand Junction — Graph

°F

Grand Junction temperature yesterday

Maximum temperature yesterday: 57 °F (at 12:53 PM)
Minimum temperature yesterday: 34 °F (at 1:03 AM)
Average temperature yesterday: 40 °F

Past Weeks' High & Low Weather Summary

 TemperatureHumidityPressure
High58 °F (Feb 19, 2:53 PM)100% (Feb 23, 12:53 AM)30.36 "Hg (Feb 23, 12:53 AM)
Low16 °F (Feb 17, 3:53 AM)13% (Feb 18, 1:53 PM)29.55 "Hg (Mar 2, 2:53 PM)
Average35 °F63%30.01 "Hg
* Reported Feb 16 5:53 AM — Mar 3 5:53 AM, Grand Junction, Weather by CustomWeather, © 2015

Note: Actual official high and low records may vary slightly from our data, if they occured in-between our weather recording intervals... More about our weather records

Advertising

Grand Junction weather history for previous 24 hours

 ConditionsComfort  
Time TempWeatherWind HumidityBarometerVisibility
5:53 AM
Tue, Mar 3
33 °FOvercast.5 mph82%29.82 "Hg10 mi
4:53 AM34 °FMostly cloudy.6 mph76%29.80 "Hg10 mi
3:53 AM34 °FMostly cloudy.6 mph76%29.79 "Hg10 mi
2:53 AM35 °FPassing clouds.7 mph70%29.74 "Hg10 mi
1:53 AM34 °FClear.7 mph73%29.73 "Hg10 mi
12:53 AM38 °FClear.6 mph58%29.70 "Hg10 mi
11:53 PM
Mon, Mar 2
38 °FPassing clouds.5 mph58%29.72 "Hg10 mi
10:53 PM37 °FPassing clouds.7 mph70%29.76 "Hg10 mi
9:53 PM37 °FPassing clouds.No wind79%29.76 "Hg10 mi
8:53 PM40 °FMostly cloudy.8 mph77%29.72 "Hg10 mi
7:53 PM41 °FPassing clouds.9 mph76%29.68 "Hg10 mi
6:53 PM40 °FOvercast.7 mph80%29.67 "Hg10 mi
5:53 PM39 °FLight rain. Mostly cloudy.15 mph89%29.70 "Hg10 mi
4:53 PM42 °FCloudy.12 mph82%29.66 "Hg10 mi
4:00 PM41 °FRain. Fog.17 mph93%29.66 "Hg4 mi
2:53 PM54 °FBroken clouds.20 mph49%29.55 "Hg10 mi
1:53 PM55 °FPassing clouds.24 mph51%29.58 "Hg10 mi
12:53 PM57 °FScattered clouds.18 mph49%29.60 "Hg10 mi
11:53 AM52 °FPartly sunny.10 mph59%29.65 "Hg10 mi
10:53 AM45 °FScattered clouds.6 mph82%29.72 "Hg10 mi
9:53 AM39 °FBroken clouds.6 mph96%29.78 "Hg10 mi
8:53 AM37 °FLight rain. Mostly cloudy.7 mph96%29.81 "Hg8 mi
7:53 AM35 °FPartly sunny.8 mph100%29.83 "Hg7 mi
6:53 AM36 °FMostly cloudy.6 mph97%29.81 "Hg10 mi
Weather by CustomWeather, © 2015

See weather overviewHow to use our weather pages